Location: Monfort
(47.1967°N, 0.2115°W)
Time: 03:29:01
(UTC+00:00)

Meteor 2-21 - Pass Details

Date: 24 October 2020
Orbit: 933 x 967 km, 82.5° (Epoch: 01 December)

Event Time Altitude Azimuth Distance (km) Brightness Sun altitude
Rises 17:43:16 0° 351° (N) 3,658 7.5 -8.6°
Reaches altitude 10° 17:45:48 10° 352° (N) 2,703 6.8 -9.0°
Maximum altitude 17:52:00 82° 80° (E) 968 4.4 -10.0°
Drops below altitude 10° 17:58:07 10° 169° (S) 2,661 6.7 -11.1°
Sets 18:00:35 0° 170° (S) 3,597 7.4 -11.5°
